Skip Page Navigation
NASA JPL Caltech
NASA Logo - Jet Propulsion Laboratory + View the NASA Portal
+ Center for Near-Earth Object Studies
JPL Home Earth Solar System Stars & Galaxies Technology
JPL Solar System Dynamics
BODIES ORBITS EPHEMERIDES TOOLS PHYSICAL DATA DISCOVERY FAQ SITE MAP
JPL Small-Body Database Browser
Search: [ help ]  
243834 (2000 UM51)
Classification: Main-belt Asteroid          SPK-ID: 2243834
Ephemeris | Orbit Diagram | Orbital Elements | Mission Design | Physical Parameters | Discovery Circumstances ]

[ show orbit diagram ]
Orbital Elements at Epoch 2459000.5 (2020-May-31.0) TDB
Reference: JPL 10 (heliocentric ecliptic J2000)
 Element Value Uncertainty (1-sigma)   Units 
e .1864720798321061 5.408e-08  
a 2.381972053963143 1.4022e-08 au
q 1.937800770958683 1.3327e-07 au
i 4.220891575436644 3.8589e-06 deg
node 221.0169858717686 8.3661e-05 deg
peri 134.553729834245 8.4735e-05 deg
M 153.0902497882023 1.4528e-05 deg
tp 2458429.483772316905
(2018-Nov-06.98377232)
5.2296e-05 TDB
period 1342.775534368198
3.68
1.1857e-05
3.246e-08
d
yr
n .2681013995160308 2.3673e-09 deg/d
Q 2.826143336967604 1.6636e-08 au
  Orbit Determination Parameters
   # obs. used (total)      286  
   data-arc span      7039 days (19.27 yr)  
   first obs. used      2000-10-24  
   last obs. used      2020-02-01  
   planetary ephem.      DE431  
   SB-pert. ephem.      SB431-N16  
   condition code      0  
   norm. resid. RMS      .54347  
   source      ORB  
   producer      Otto Matic  
   solution date      2020-Feb-25 09:25:39  

Additional Information
 Earth MOID = .936352 au 
 Jupiter MOID = 2.63364 au 
 T_jup = 3.510 
[ show covariance matrix ]

Ephemeris | Orbit Diagram | Orbital Elements | Mission Design | Physical Parameters | Discovery Circumstances ]

Physical Parameter Table
Parameter Symbol Value Units Sigma Reference Notes
absolute magnitude H 16.8   n/a MPO454790  

243834 (2000 UM51)          Discovered 2000-Oct-24 by LINEAR at Socorro
Reference: 20100726/Numbers.arcLast Updated: 2010-07-28

Alternate Designations
 2000 UM51 = 2007 PJ37 
Ephemeris | Orbit Diagram | Orbital Elements | Mission Design | Physical Parameters | Discovery Circumstances ]
ABOUT SSD CREDITS/AWARDS PRIVACY/COPYRIGHT GLOSSARY LINKS
FirstGov 2020-Oct-24 21:49 UT
(server date/time)  
NASA Home Page
Site Manager:   Ryan S. Park
Webmaster  Alan B. Chamberlin